Temperature
20 18 18 19 19 20 21 21 21 21 22 22 21 21 21 21 21 20 21 21 21 22 22 22 22 22 21 21 21 21 20 20 20 19 19 19 19 18 18 18 18 18 18 18
18 19 19 20 20 21 21 21 21 21 22 22 21 21 21 20 20 21 21 21 21 22 22 22 22 22 22 21 21 21 20 20 20 19 19 19 19 18 18 18 18 17 17 17
19 20 20 20 20 21 20 20 21 21 21 21 21 21 20 20 21 21 21 21 21 21 22 22 22 22 22 22 22 21 21 20 20 19 19 19 18 18 18 18 18 17 17 17
19 20 20 21 21 20 20 20 21 21 20 19 21 19 20 19 19 20 20 21 21 22 22 22 22 22 22 22 22 21 21 20 20 19 19 19 19 19 18 18 18 17 17 17
19 20 21 21 21 21 20 21 21 21 20 19 19 19 18 19 19 20 20 21 21 22 22 22 22 22 22 22 21 21 21 20 20 19 19 19 19 19 18 18 18 17 17 17
19 20 21 21 21 21 21 20 18 16 17 18 19 19 18 18 19 19 19 20 21 21 22 22 22 22 22 22 21 21 20 20 20 19 19 19 19 18 18 18 18 17 17 17
20 20 20 21 21 21 20 18 17 18 16 17 18 18 18 18 19 19 19 20 20 21 21 21 21 21 21 21 21 21 20 20 20 19 19 19 19 18 18 18 18 17 17 17
18 18 20 20 21 19 19 18 17 18 17 17 18 18 18 19 19 19 20 20 20 20 21 21 21 21 21 21 21 21 20 20 20 19 19 19 19 18 18 18 18 17 17 17
17 18 19 20 20 20 19 17 17 16 17 17 17 17 18 19 19 18 18 19 19 20 20 20 21 21 21 21 21 20 20 20 20 19 19 19 18 18 18 18 17 17 17 17
17 18 19 19 20 19 18 16 15 15 16 17 18 18 18 19 19 18 17 18 19 20 20 20 20 21 21 21 21 20 20 20 19 19 19 19 18 18 18 17 17 17 17 16
17 17 18 18 19 18 18 17 15 14 15 16 17 17 18 18 18 18 17 18 19 19 20 20 20 20 20 20 20 20 20 19 19 19 19 18 18 18 17 17 17 16 16 16
15 14 15 17 18 18 18 17 15 16 15 14 15 17 18 17 17 17 18 18 19 19 19 19 20 20 20 20 20 19 19 19 19 18 18 18 18 17 17 17 17 16 16 16
15 14 15 17 17 17 17 17 15 14 13 13 15 17 18 17 17 17 17 18 18 19 19 19 19 19 19 19 19 19 19 18 18 18 18 18 17 17 17 17 16 16 16 16
15 13 14 16 16 16 17 17 16 15 14 14 15 17 17 17 16 16 17 17 18 18 18 18 19 19 18 18 18 18 18 18 18 18 17 17 17 17 17 16 16 16 16 15
14 14 14 15 16 16 17 17 16 16 15 16 16 16 16 16 16 16 17 17 17 18 18 18 18 18 18 18 18 18 18 18 17 17 17 17 17 16 16 16 16 15 15 15
12 13 14 15 16 16 17 17 17 17 16 16 16 16 15 16 16 16 16 16 16 17 18 18 18 18 18 17 17 17 17 17 17 17 17 17 16 16 16 16 15 15 15 15
11 12 13 14 15 16 16 16 16 16 16 16 16 16 15 15 15 16 16 16 17 17 18 18 18 18 17 17 17 17 17 17 17 17 17 16 16 16 16 15 15 15 15 14
11 11 11 12 14 15 15 16 16 16 16 15 15 15 15 15 16 17 17 17 17 17 18 18 18 17 17 17 17 17 17 17 17 16 16 16 16 16 15 15 15 15 14 14
10 11 10 11 13 14 15 16 15 15 15 15 15 15 15 15 15 16 17 17 17 18 18 18 17 17 17 17 17 17 17 17 16 16 16 16 15 15 15 15 15 14 14 14
10 10 11 11 13 14 15 15 15 15 15 15 14 14 14 14 14 15 17 16 17 17 17 17 17 17 17 16 16 16 16 16 16 16 16 15 15 15 15 14 14 14 14 14
11 11 11 11 12 13 14 14 15 15 15 15 15 15 14 14 15 16 17 16 17 17 17 17 17 17 16 16 16 16 16 16 16 15 15 15 15 14 14 14 14 14 13 13
11 11 10 10 12 13 13 14 14 13 14 15 15 15 15 16 16 16 16 16 16 16 16 16 16 16 16 16 16 15 15 15 15 15 15 14 14 14 14 14 14 13 13 13
10 10 9 10 11 12 13 13 14 14 14 14 15 15 15 15 15 16 15 16 16 16 16 16 16 16 15 15 15 15 15 14 14 14 14 14 14 14 14 13 13 13 13 13
10 9 9 10 11 12 13 13 14 14 14 14 15 15 15 15 15 15 15 15 15 15 15 15 15 15 15 15 14 14 14 14 14 14 14 13 13 13 13 13 13 13 13 13
9 9 9 10 10 12 13 13 14 14 14 14 14 14 14 15 15 15 15 15 15 15 14 14 14 14 14 14 14 14 14 13 13 13 13 13 13 13 13 13 12 12 12 12
8 9 9 10 11 10 12 13 13 13 13 13 14 14 14 14 14 14 14 14 14 14 14 14 14 14 14 14 14 13 13 13 13 13 13 12 12 12 12 12 12 12 12 12
Wind_Speed
3 5 3 6 7 6 4 2 2 4 3 0 2 4 5 3 4 5 6 6 8 9 7 5 6 6 6 6 7 8 7 6 5 3 3 2 2 1 0 0 1 1 1 1
5 2 6 4 3 3 3 1 3 4 2 0 2 4 4 3 6 8 9 8 8 7 5 5 6 6 7 7 8 8 8 7 6 4 3 2 2 1 1 0 0 1 1 1
6 5 3 4 4 4 3 5 5 4 4 4 1 5 3 3 3 4 6 7 7 8 8 7 7 7 7 8 9 9 8 7 6 5 3 3 3 2 2 1 0 1 1 1
4 4 3 3 4 6 4 6 6 3 1 2 1 2 6 4 4 5 6 6 7 7 7 7 7 7 8 8 7 7 8 7 6 6 6 5 4 3 2 1 1 0 0 1
5 3 3 4 5 7 6 2 3 2 3 0 2 2 7 3 4 7 7 7 7 7 7 8 8 8 7 6 6 7 7 7 6 6 7 5 3 2 1 1 1 0 1 0
4 3 4 5 3 4 4 5 6 6 5 1 3 4 6 4 5 5 5 5 5 5 5 5 5 4 4 5 5 6 7 6 6 6 6 6 5 4 2 2 1 1 1 1
3 3 3 2 1 2 5 6 4 4 3 5 3 3 7 6 5 5 6 5 4 3 3 4 4 5 5 6 7 8 8 7 7 7 7 6 6 5 4 3 3 2 1 1
3 5 3 2 5 4 4 8 8 5 5 4 1 5 6 4 3 2 2 2 2 2 2 3 4 6 6 7 7 8 9 8 7 7 6 5 5 4 3 3 3 3 2 2
5 5 4 3 2 7 5 4 6 6 3 1 4 5 6 2 2 2 1 1 1 2 3 3 3 4 6 6 7 8 9 7 7 7 6 4 4 3 3 2 2 2 2 2
6 3 4 3 3 3 5 8 6 6 5 3 4 4 4 4 3 0 0 1 1 2 2 2 2 3 4 5 5 6 7 7 6 6 6 5 4 3 3 2 2 2 2 1
3 3 4 2 2 3 3 4 5 5 5 6 3 6 5 7 5 4 4 3 3 3 3 2 2 1 3 4 5 5 6 5 5 5 5 4 3 3 3 3 3 2 2 2
2 4 3 5 4 3 4 6 7 5 4 4 4 6 5 4 4 4 4 2 1 2 2 2 2 2 3 3 4 5 6 6 5 5 5 4 3 3 3 3 3 2 2 2
2 4 1 5 4 3 2 3 4 5 5 5 5 6 3 1 1 1 2 1 1 1 2 2 2 2 3 3 3 4 5 5 5 5 5 4 4 3 3 2 2 2 2 2
3 3 5 7 6 3 2 2 3 5 4 5 7 7 5 3 3 3 1 1 1 1 2 2 1 1 2 2 3 3 4 4 5 5 5 5 4 3 3 2 2 2 2 2
4 2 4 5 5 3 4 4 5 5 7 8 7 7 7 6 5 4 2 1 2 1 1 2 2 2 2 2 3 3 3 3 4 4 4 4 3 3 3 2 2 2 1 1
3 2 0 3 3 3 3 5 5 5 4 5 4 6 5 3 1 1 2 2 2 1 1 2 2 2 3 3 3 3 3 3 4 4 3 3 3 3 3 2 2 2 1 1
1 3 1 3 4 2 5 5 5 4 3 6 7 7 3 2 3 4 4 4 3 2 2 3 4 4 4 4 3 4 4 4 4 4 3 3 3 3 3 2 2 2 1 1
5 4 3 1 1 4 7 3 3 4 3 4 5 4 4 4 4 3 3 4 3 3 3 3 3 4 3 3 3 3 4 4 4 3 2 2 3 3 3 2 2 2 1 1
5 6 4 2 2 5 5 2 1 3 3 3 4 3 1 1 2 2 1 2 3 3 3 3 3 4 4 3 4 4 4 4 3 2 2 2 3 3 3 3 2 2 1 1
4 4 4 3 3 5 5 4 2 2 4 3 3 3 2 4 1 4 2 1 1 1 1 2 2 3 4 4 4 5 4 3 3 2 3 3 3 3 3 3 2 1 1 1
2 2 3 3 4 6 5 5 1 4 6 3 3 4 4 5 5 4 1 1 1 0 1 3 4 4 4 4 5 5 4 3 3 2 2 2 2 2 2 2 1 2 2 2
4 3 3 3 3 6 3 2 2 5 3 2 4 4 4 4 2 1 1 1 1 1 2 3 4 3 3 4 5 4 3 3 2 2 2 1 1 1 1 1 1 2 3 2
4 5 4 6 6 4 2 3 4 3 3 4 3 4 4 2 2 1 1 1 1 1 2 3 4 4 2 2 4 3 2 2 3 3 2 1 1 1 1 2 2 1 2 2
2 2 2 4 6 5 5 4 3 3 4 5 3 2 3 3 3 2 2 1 1 1 2 2 4 4 2 1 2 2 2 3 3 3 2 2 1 1 2 1 1 1 1 2
4 2 2 4 6 5 5 4 4 4 4 3 2 0 2 4 3 3 2 2 2 2 2 2 3 3 3 2 1 1 2 3 3 2 2 2 2 1 1 1 0 1 1 3
4 5 5 6 5 3 5 5 4 3 3 2 1 2 1 2 3 2 1 1 2 2 2 3 2 2 2 2 2 1 3 3 3 2 2 2 1 1 1 1 1 2 0 1
Wind_Direction
75 87 187 211 191 180 169 178 261 268 271 237 246 265 273 217 189 202 206 203 203 214 219 205 195 190 181 176 174 179 176 172 159 158 162 161 180 178 103 218 200 189 180 145
53 255 227 193 171 160 167 218 271 300 328 199 270 292 281 220 203 201 201 205 209 210 207 203 197 192 184 184 185 182 180 173 173 176 169 157 141 144 149 59 69 205 170 151
180 231 185 155 163 173 205 198 220 242 344 12 29 332 314 282 251 222 210 207 209 206 207 208 200 199 189 190 190 188 182 176 173 164 136 107 86 68 68 56 5 298 202 179
218 244 171 173 197 164 242 225 201 198 111 299 67 275 289 280 290 244 227 215 217 217 210 206 198 196 196 199 191 180 176 172 168 159 153 151 159 176 197 181 187 305 208 188
231 201 166 202 214 174 211 203 158 164 157 20 3 171 281 300 274 261 238 224 223 214 206 204 202 201 195 187 178 174 167 167 164 162 164 164 175 189 160 117 112 1 320 234
240 238 201 208 212 178 160 76 58 52 81 239 241 177 273 256 248 264 250 236 225 214 205 204 196 176 173 163 162 162 161 167 167 167 167 170 175 177 160 151 173 238 256 283
311 301 271 187 129 48 101 97 42 7 16 246 249 186 249 263 255 239 241 240 221 202 187 184 179 172 173 173 171 165 164 171 176 174 177 180 181 181 184 189 199 213 230 242
195 280 260 204 178 177 168 144 158 188 214 264 275 225 253 272 289 270 228 198 159 146 159 180 186 178 180 184 178 171 172 177 177 179 185 183 176 182 194 194 200 210 223 232
182 247 285 250 194 147 141 168 164 141 153 199 271 280 302 317 6 31 64 99 134 174 174 178 186 179 178 181 181 179 175 176 180 181 176 173 171 175 189 201 201 205 220 219
166 231 287 288 77 48 139 144 106 126 152 218 274 262 243 255 259 320 142 194 222 193 177 174 188 197 188 185 175 170 168 177 181 176 174 173 173 180 182 179 200 210 214 202
136 177 300 9 152 177 92 100 110 126 152 160 224 263 228 216 216 210 222 225 216 192 189 196 204 199 157 155 159 162 163 168 171 168 163 156 164 171 172 178 202 205 206 192
133 131 254 265 262 203 165 159 144 154 206 175 175 258 274 214 214 198 212 230 216 167 170 176 172 138 126 142 163 162 165 167 168 162 155 157 156 160 166 180 199 198 193 186
126 112 40 341 336 16 109 151 150 134 132 162 174 251 297 7 304 224 210 217 186 122 129 131 121 119 137 154 163 160 162 164 158 155 157 159 162 169 177 182 187 179 173 164
108 125 172 201 222 222 239 215 169 138 161 195 211 233 275 288 291 290 265 180 148 141 130 127 130 123 144 159 159 155 155 154 155 156 162 168 174 178 176 165 159 158 157 158
95 167 218 238 246 224 230 232 197 189 187 190 220 221 244 246 243 249 236 159 110 113 120 157 171 168 155 151 149 150 148 144 148 154 165 176 167 155 149 140 143 147 152 159
77 149 182 295 275 256 257 251 220 212 198 206 220 244 249 244 205 244 215 174 165 199 213 197 177 161 157 166 165 156 158 157 152 157 167 164 153 148 147 143 140 133 126 120
123 128 104 274 302 327 267 240 212 204 208 185 211 234 234 215 226 221 211 196 198 215 224 198 184 181 182 181 174 174 167 154 152 156 156 153 153 154 157 155 136 137 137 123
151 131 140 227 27 230 247 248 198 191 231 222 225 225 198 209 231 224 194 190 207 212 212 210 191 179 177 172 160 150 135 137 138 136 142 161 162 164 164 156 160 169 159 157
160 147 138 143 210 271 289 285 170 187 261 241 214 230 192 108 51 323 247 201 209 210 206 208 192 175 158 162 157 135 129 138 139 150 168 169 168 171 172 184 192 181 159 170
88 110 129 146 185 234 253 287 281 155 266 266 199 210 177 111 153 259 266 260 261 224 167 168 153 144 149 158 144 134 137 140 159 184 192 180 171 173 190 203 198 171 156 179
76 75 145 178 217 258 272 300 30 168 244 276 216 207 180 184 215 245 247 278 264 155 132 140 139 148 159 152 141 140 147 174 195 184 166 155 167 177 181 183 181 158 143 119
176 166 187 166 197 254 310 25 181 236 275 261 227 207 194 212 229 205 167 182 178 99 101 126 132 134 131 137 138 143 169 188 164 148 143 136 134 149 131 136 157 147 142 136
194 187 190 196 218 256 265 240 273 276 281 273 247 236 194 203 220 194 163 175 182 133 125 120 126 119 107 120 131 144 183 158 139 134 138 131 104 75 98 145 153 135 143 160
279 148 175 254 266 274 292 294 301 297 289 293 279 244 185 182 187 170 166 174 154 125 126 118 125 129 129 118 125 151 152 134 139 148 150 137 124 91 75 87 144 151 174 187
241 197 220 259 278 308 312 307 311 319 324 334 354 239 189 167 180 178 174 190 177 153 141 137 148 156 165 151 136 132 129 133 153 159 154 150 148 128 92 65 354 206 225 201
213 195 198 237 246 228 275 292 308 305 308 318 352 1 356 171 173 155 157 170 161 155 138 144 153 163 175 155 156 157 142 143 155 165 177 177 168 159 163 158 360 3 259 228
Height
1492 1499 1505 1502 1501 1502 1504 1507 1510 1505 1498 1500 1502 1501 1497 1495 1497 1498 1498 1499 1500 1502 1504 1506 1508 1511 1513 1514 1516 1518 1520 1522 1524 1525 1525 1526 1526 1527 1528 1529 1529 1530 1530 1529
1498 1502 1497 1496 1498 1500 1503 1508 1509 1504 1498 1499 1502 1501 1496 1495 1495 1495 1496 1497 1498 1500 1502 1504 1506 1509 1510 1512 1514 1516 1518 1521 1522 1524 1525 1526 1526 1527 1528 1529 1529 1529 1530 1529
1498 1496 1492 1495 1498 1501 1504 1507 1506 1506 1501 1500 1502 1506 1500 1495 1494 1495 1495 1496 1497 1498 1500 1502 1504 1506 1508 1510 1512 1514 1516 1519 1521 1523 1524 1525 1526 1526 1527 1528 1529 1529 1529 1529
1494 1491 1492 1494 1497 1499 1506 1498 1499 1502 1509 1515 1509 1522 1506 1498 1495 1493 1493 1493 1494 1495 1497 1499 1501 1503 1505 1507 1510 1512 1515 1517 1520 1521 1522 1523 1524 1525 1526 1527 1528 1529 1529 1529
1493 1490 1491 1494 1493 1494 1497 1493 1497 1501 1508 1516 1514 1521 1513 1500 1498 1492 1490 1490 1491 1493 1495 1497 1499 1501 1503 1506 1508 1510 1513 1516 1518 1520 1521 1522 1523 1524 1526 1527 1527 1528 1528 1528
1489 1487 1487 1487 1487 1489 1491 1496 1503 1511 1516 1527 1517 1521 1517 1504 1497 1491 1488 1488 1488 1490 1492 1494 1496 1499 1502 1504 1507 1509 1511 1514 1516 1518 1520 1521 1522 1523 1524 1525 1526 1527 1527 1527
1492 1488 1485 1484 1488 1490 1493 1508 1525 1527 1535 1531 1516 1517 1513 1495 1490 1488 1486 1486 1486 1488 1490 1492 1494 1496 1499 1502 1504 1506 1509 1511 1514 1516 1518 1520 1521 1522 1523 1524 1525 1526 1526 1526
1501 1501 1487 1484 1487 1493 1496 1503 1524 1533 1536 1529 1517 1517 1504 1490 1487 1485 1485 1485 1485 1486 1488 1490 1492 1494 1496 1499 1502 1504 1506 1508 1511 1514 1517 1518 1520 1521 1522 1523 1524 1524 1524 1524
1502 1500 1484 1482 1481 1486 1496 1503 1503 1519 1524 1528 1522 1511 1498 1488 1486 1485 1485 1484 1484 1486 1487 1489 1491 1492 1495 1497 1500 1502 1504 1506 1509 1512 1515 1516 1518 1520 1521 1522 1522 1522 1523 1522
1492 1497 1487 1482 1482 1484 1488 1496 1510 1519 1529 1532 1521 1513 1506 1492 1488 1486 1485 1484 1484 1485 1486 1487 1489 1491 1493 1496 1498 1501 1503 1505 1507 1510 1513 1514 1516 1518 1519 1519 1520 1520 1520 1520
1489 1497 1493 1487 1488 1491 1494 1498 1506 1517 1519 1528 1529 1516 1491 1488 1485 1485 1484 1483 1483 1483 1485 1486 1488 1490 1493 1495 1497 1499 1501 1504 1506 1509 1511 1513 1514 1516 1517 1517 1517 1518 1518 1518
1491 1498 1502 1493 1485 1483 1486 1493 1502 1513 1518 1520 1522 1514 1484 1483 1482 1483 1483 1483 1483 1483 1485 1486 1488 1489 1492 1494 1496 1498 1500 1503 1505 1507 1509 1511 1513 1514 1515 1515 1515 1515 1515 1516
1490 1500 1507 1502 1496 1489 1489 1491 1495 1503 1514 1520 1520 1508 1483 1482 1482 1482 1483 1482 1482 1483 1484 1486 1487 1488 1490 1493 1495 1497 1499 1502 1504 1506 1507 1509 1511 1512 1512 1513 1513 1513 1513 1513
1487 1498 1504 1505 1500 1493 1491 1490 1492 1499 1510 1513 1508 1498 1487 1484 1483 1482 1482 1481 1482 1483 1484 1485 1486 1487 1489 1492 1494 1496 1498 1500 1502 1504 1506 1507 1509 1510 1510 1511 1511 1511 1511 1510
1488 1497 1495 1493 1488 1488 1488 1487 1488 1492 1495 1500 1496 1494 1487 1483 1482 1481 1481 1481 1481 1482 1483 1484 1485 1487 1489 1491 1493 1495 1497 1499 1501 1503 1505 1506 1507 1508 1509 1509 1509 1509 1509 1508
1490 1495 1494 1493 1487 1486 1486 1484 1485 1486 1487 1489 1488 1488 1481 1480 1480 1481 1481 1481 1481 1481 1482 1483 1484 1486 1487 1489 1492 1494 1496 1497 1499 1501 1503 1504 1505 1506 1506 1507 1507 1507 1507 1506
1494 1496 1499 1500 1491 1488 1491 1483 1482 1483 1482 1483 1486 1483 1479 1479 1479 1478 1479 1479 1480 1480 1481 1482 1482 1485 1486 1488 1490 1493 1494 1496 1498 1499 1501 1502 1503 1504 1504 1505 1505 1505 1505 1505
1493 1497 1503 1504 1497 1501 1487 1476 1477 1478 1478 1478 1477 1476 1476 1476 1476 1477 1477 1478 1479 1479 1480 1480 1481 1483 1486 1487 1489 1491 1493 1495 1496 1498 1499 1500 1501 1502 1503 1503 1503 1503 1503 1503
1487 1494 1502 1506 1503 1495 1483 1477 1477 1479 1478 1474 1475 1474 1474 1475 1475 1476 1476 1477 1477 1478 1479 1480 1481 1483 1484 1486 1489 1490 1492 1493 1495 1496 1497 1498 1499 1500 1501 1501 1502 1502 1502 1502
1488 1490 1499 1503 1501 1499 1485 1475 1474 1477 1480 1473 1472 1473 1474 1474 1479 1476 1475 1475 1476 1477 1477 1479 1481 1482 1484 1485 1487 1489 1490 1491 1493 1494 1496 1496 1497 1498 1499 1500 1500 1500 1500 1500
1492 1495 1498 1500 1499 1491 1479 1475 1474 1484 1480 1472 1471 1471 1472 1473 1474 1473 1473 1474 1474 1475 1476 1477 1479 1481 1482 1484 1486 1487 1488 1490 1491 1493 1494 1495 1496 1497 1497 1498 1498 1498 1499 1499
1492 1495 1497 1499 1499 1493 1476 1475 1478 1476 1471 1470 1469 1469 1470 1470 1470 1471 1471 1472 1473 1474 1475 1476 1478 1479 1481 1483 1484 1485 1487 1488 1490 1491 1492 1493 1494 1495 1496 1496 1496 1497 1497 1497
1489 1489 1490 1490 1488 1478 1475 1475 1474 1472 1470 1468 1467 1467 1468 1468 1469 1469 1470 1471 1472 1473 1474 1476 1477 1479 1481 1482 1483 1485 1486 1487 1489 1490 1491 1492 1493 1493 1494 1495 1494 1495 1495 1495
1485 1483 1486 1485 1478 1475 1473 1472 1471 1470 1469 1467 1466 1466 1466 1466 1467 1469 1470 1471 1472 1473 1474 1475 1476 1478 1479 1481 1483 1484 1486 1487 1488 1488 1489 1490 1491 1492 1492 1493 1493 1493 1493 1493
1483 1483 1484 1481 1476 1473 1471 1470 1469 1468 1467 1466 1465 1464 1465 1465 1466 1467 1468 1470 1471 1472 1473 1475 1476 1477 1479 1480 1481 1483 1484 1485 1486 1487 1488 1489 1489 1490 1490 1490 1491 1491 1491 1491
1480 1480 1481 1479 1474 1473 1471 1469 1468 1467 1466 1465 1464 1464 1464 1465 1465 1466 1468 1469 1471 1472 1472 1474 1475 1477 1478 1479 1480 1481 1482 1483 1484 1485 1486 1486 1487 1488 1488 1488 1488 1489 1489 1489